Simultaneous Nadir Overpasses (SNOs) Predictions

Prediction of SNOs between AQUA and METOP-A Satellite Orbit:

Table of predicted SNOs for the next 14.0 days since TLE Epoch: 10/12/2019
Index Date (AQUA) Time (AQUA) Lat,Lon (AQUA) SZA (AQUA ) Date (METOP-A) Time (METOP-A) Lat,Lon (METOP-A) SZA (METOP-A ) Distance(km) Time Diff (sec)
1 10/12/2019 14:04:39 -75.07, 140.16 97.53 10/12/2019 14:03:32 -75.02, 137.70 97.49 70.81 67
2 10/12/2019 14:54:15 75.52, -53.44 82.97 10/12/2019 14:54:01 75.55, -53.43 83.00 3.11 14
3 10/12/2019 15:43:42 -75.56, 114.08 96.98 10/12/2019 15:44:42 -75.58, 113.98 96.96 3.19 60
4 10/15/2019 09:39:02 -75.45,-154.46 96.07 10/15/2019 09:37:49 -75.36,-154.95 96.14 17.11 73
5 10/15/2019 10:28:31 75.56, 12.87 84.06 10/15/2019 10:28:25 75.55, 12.95 84.05 2.36 6
6 10/15/2019 11:17:58 -75.60,-179.59 95.89 10/15/2019 11:19:06 -75.58,-179.64 95.91 2.04 68
7 10/18/2019 05:13:17 -75.50, -88.14 95.00 10/18/2019 05:12:09 -75.51, -88.15 94.97 2.01 68
8 10/18/2019 06:02:45 75.56, 79.31 85.09 10/18/2019 06:02:48 75.56, 79.32 85.09 0.52 3
9 10/18/2019 06:52:14 -75.69,-113.42 94.76 10/18/2019 06:53:26 -75.73,-112.82 94.75 17.01 72
10 10/21/2019 00:47:33 -75.54, -21.84 93.94 10/21/2019 00:46:33 -75.52, -21.78 93.96 3.26 60
11 10/21/2019 01:37:00 75.57, 145.73 86.11 10/21/2019 01:37:12 75.56, 145.68 86.10 1.55 12
12 10/21/2019 02:26:36 -76.03, -48.01 93.38 10/21/2019 02:27:43 -76.06, -45.40 93.42 70.11 67
13 10/23/2019 20:21:48 -75.55, 44.59 92.94 10/23/2019 20:20:57 -75.52, 44.58 92.96 3.12 51
14 10/23/2019 21:11:15 75.58,-147.86 87.11 10/23/2019 21:11:36 75.56,-147.96 87.10 3.30 21




NCC Satellite Simultaneous Nadir Overpasses (SNOs) Prediction Service
